SCP
-0 -0 0 -0 0 -0 0 0 0 0 0 0 0 0 0 0 -0 0 -0 -0 0 0
-0 0 0 0 0 -0 0 1 0 0 0 0 0 0 0 0 0 -0 0 0 -0 0
-0 0 0 -0 0 -0 0 0 0 0 0 0 0 0 0 -0 0 0 -0 -0 0 0
-0 -0 0 0 -0 0 0 -0 0 0 0 0 0 0 0 -0 0 0 0 0 0 0
-0 -0 -0 0 -0 0 0 0 0 0 0 0 0 0 0 0 0 0 0 0 0 0
0 0 0 0 0 0 0 0 0 0 0 0 0 0 0 0 0 0 0 0 0 0
0 0 0 0 0 0 0 0 0 0 0 0 0 0 0 0 0 0 0 0 0 0
1 0 0 0 0 0 0 0 0 0 0 0 0 0 0 0 0 0 0 0 0 0
1 1 0 0 1 0 0 0 0 0 0 0 0 0 0 0 0 0 0 0 0 0
1 1 1 1 1 1 0 0 0 0 0 0 0 0 0 0 0 0 0 0 0 0
0 1 1 1 1 1 1 0 1 0 0 0 0 0 0 0 0 0 0 0 0 0
-0 1 1 1 1 1 1 1 1 0 1 1 1 0 0 0 0 0 0 0 0 0
1 1 2 2 2 1 1 1 1 1 0 1 0 0 0 0 -0 -0 0 -0 -0 -0
1 1 1 2 1 2 1 1 0 1 0 1 0 0 0 -0 -0 -0 -0 -0 -0 0
Wind_Speed_500mb
28 31 34 43 38 36 34 32 33 27 30 25 20 16 16 12 14 14 6 8 13 10
29 32 33 38 42 37 32 33 27 26 27 29 23 18 11 8 9 2 9 11 11 11
28 31 33 44 37 38 35 42 33 28 28 26 23 23 18 17 16 16 13 13 22 15
33 33 35 36 43 34 33 33 26 32 33 30 25 23 22 25 12 17 18 19 11 17
37 37 34 32 37 37 36 32 33 32 32 33 31 29 30 28 26 27 24 22 20 20
40 41 40 39 36 38 38 37 34 35 35 32 30 29 30 28 26 29 30 28 26 26
44 44 41 41 43 40 42 40 37 38 40 33 28 29 28 27 28 26 29 31 31 31
47 45 45 47 45 43 39 34 34 39 37 32 31 32 31 30 28 28 30 29 31 33
51 48 48 51 49 45 40 40 34 34 35 34 33 38 41 36 26 31 27 29 33 37
54 51 50 52 50 45 45 42 40 35 39 37 38 42 45 43 39 32 28 31 37 33
56 51 49 49 51 49 44 44 41 39 37 35 34 40 38 36 34 44 35 31 29 33
61 54 49 46 45 45 45 43 42 37 41 40 38 37 39 38 36 27 30 27 35 35
63 57 52 46 42 42 44 42 40 38 34 29 25 29 30 31 31 22 23 28 25 22
62 60 56 47 49 45 43 38 35 35 33 41 43 36 34 33 22 21 21 20 20 28
Wind_Direction_500mb
209 196 189 178 170 181 185 186 207 203 186 187 188 173 192 170 161 197 179 205 202 210
203 198 191 178 173 183 185 191 193 192 183 185 188 192 220 216 239 94 209 242 258 232
198 197 192 176 177 184 190 195 189 186 185 195 204 214 202 201 249 231 218 247 228 241
191 194 191 186 185 187 191 207 173 184 193 202 213 220 225 203 231 219 237 249 250 262
191 190 197 193 192 192 197 203 204 201 199 207 215 225 229 235 229 242 249 254 246 254
194 192 191 195 195 197 199 207 203 212 210 205 215 223 230 233 243 248 243 245 247 253
197 196 192 196 195 200 205 207 200 208 213 208 211 222 232 241 245 242 243 246 244 255
202 198 194 197 199 197 206 205 208 205 216 213 217 228 238 233 243 251 244 249 258 262
207 203 204 196 202 200 206 207 210 214 217 221 222 231 238 238 234 244 254 255 257 250
208 203 205 201 204 207 207 215 213 221 223 223 227 234 240 242 245 253 266 273 268 263
205 203 206 205 204 209 212 216 223 222 230 227 236 245 249 244 257 249 254 268 260 271
203 197 199 203 207 210 212 215 221 228 232 237 236 249 242 245 259 254 255 264 256 251
203 200 198 199 205 209 213 215 213 221 230 237 225 224 224 252 252 245 250 262 279 270
206 200 201 202 207 205 207 211 220 221 225 237 252 247 250 251 232 237 258 267 270 263
Wind_Speed_850mb
28 31 34 43 38 36 34 32 33 27 30 25 20 16 16 12 14 14 6 8 13 10
29 32 33 38 42 37 32 33 27 26 27 29 23 18 11 8 9 2 9 11 11 11
28 31 33 44 37 38 35 42 33 28 28 26 23 23 18 17 16 16 13 13 22 15
33 33 35 36 43 34 33 33 26 32 33 30 25 23 22 25 12 17 18 19 11 17
37 37 34 32 37 37 36 32 33 32 32 33 31 29 30 28 26 27 24 22 20 20
40 41 40 39 36 38 38 37 34 35 35 32 30 29 30 28 26 29 30 28 26 26
44 44 41 41 43 40 42 40 37 38 40 33 28 29 28 27 28 26 29 31 31 31
47 45 45 47 45 43 39 34 34 39 37 32 31 32 31 30 28 28 30 29 31 33
51 48 48 51 49 45 40 40 34 34 35 34 33 38 41 36 26 31 27 29 33 37
54 51 50 52 50 45 45 42 40 35 39 37 38 42 45 43 39 32 28 31 37 33
56 51 49 49 51 49 44 44 41 39 37 35 34 40 38 36 34 44 35 31 29 33
61 54 49 46 45 45 45 43 42 37 41 40 38 37 39 38 36 27 30 27 35 35
63 57 52 46 42 42 44 42 40 38 34 29 25 29 30 31 31 22 23 28 25 22
62 60 56 47 49 45 43 38 35 35 33 41 43 36 34 33 22 21 21 20 20 28
Wind_Direction_850mb
209 196 189 178 170 181 185 186 207 203 186 187 188 173 192 170 161 197 179 205 202 210
203 198 191 178 173 183 185 191 193 192 183 185 188 192 220 216 239 94 209 242 258 232
198 197 192 176 177 184 190 195 189 186 185 195 204 214 202 201 249 231 218 247 228 241
191 194 191 186 185 187 191 207 173 184 193 202 213 220 225 203 231 219 237 249 250 262
191 190 197 193 192 192 197 203 204 201 199 207 215 225 229 235 229 242 249 254 246 254
194 192 191 195 195 197 199 207 203 212 210 205 215 223 230 233 243 248 243 245 247 253
197 196 192 196 195 200 205 207 200 208 213 208 211 222 232 241 245 242 243 246 244 255
202 198 194 197 199 197 206 205 208 205 216 213 217 228 238 233 243 251 244 249 258 262
207 203 204 196 202 200 206 207 210 214 217 221 222 231 238 238 234 244 254 255 257 250
208 203 205 201 204 207 207 215 213 221 223 223 227 234 240 242 245 253 266 273 268 263
205 203 206 205 204 209 212 216 223 222 230 227 236 245 249 244 257 249 254 268 260 271
203 197 199 203 207 210 212 215 221 228 232 237 236 249 242 245 259 254 255 264 256 251
203 200 198 199 205 209 213 215 213 221 230 237 225 224 224 252 252 245 250 262 279 270
206 200 201 202 207 205 207 211 220 221 225 237 252 247 250 251 232 237 258 267 270 263